Regional Weather Roundup
Issued by NWS

Home | Current Version | Previous Version | Graphics & Text | Print | Product List | Glossary On
Versions: 1 2 3 4 5 6 7 8 9 10 11 12 13 14 15 16 17 18 19 20 21 22 23 24 25 26 27 28 29 30 31 32 33 34 35 36 37 38 39 40 41 42 43 44 45 46 47 48 49 50
000
ASUS44 KMEG 310200
RWRTN
TENNESSEE HOURLY STATE WEATHER ROUNDUP
NATIONAL WEATHER SERVICE MEMPHIS TN
900 PM CDT MON MAR 30 2015

TNZ002-004-019-021-049-052-054-088>092-310300-
WEST TENNESSEE

CITY           SKY/WX    TMP DP  RH WIND       PRES   REMARKS
MEMPHIS INTL   CLEAR     60  40  47 S5        30.11R
NWS MEMPHIS      N/A     56 N/A N/A MISG        N/A
JACKSON        CLEAR     52  37  56 CALM      30.11R
DYERSBURG      CLEAR     55  28  35 CALM      30.11S
UNION CITY     CLEAR     54  32  43 CALM      30.10R
PARIS          CLEAR     48  34  57 CALM      30.11S
LEXINGTON      CLEAR     54  34  47 CALM      30.10F
SAVANNAH       CLEAR     48  45  87 CALM      30.12S
$$

TNZ008-025-027-028-033-062-065-066-310300-
NORTH MIDDLE TENNESSEE

CITY           SKY/WX    TMP DP  RH WIND       PRES   REMARKS
NASHVILLE      FAIR      57  27  31 CALM      30.12R
CLARKSVILLE    CLEAR     52  31  44 CALM      30.11R
CROSSVILLE     CLEAR     54  23  30 NW3       30.14R
$$

TNZ061-075-076-078-094-096-097-310300-
SOUTH MIDDLE TENNESSEE

CITY           SKY/WX    TMP DP  RH WIND       PRES   REMARKS
FAYETTEVILLE   CLEAR     55  37  50 CALM      30.13R
TULLAHOMA      CLEAR     48  34  57 CALM      30.14R
WINCHESTER     CLEAR     48  39  71 CALM      30.15R
COLUMBIA       CLEAR     54  39  58 S5        30.10S
SHELBYVILLE    CLEAR     50  39  66 SE3       30.13S
$$

TNZ017-018-042-046-047-310300-
NORTHEAST TENNESSEE

CITY           SKY/WX    TMP DP  RH WIND       PRES   REMARKS
TRI CITIES     PTCLDY    54  28  36 W3        30.09R
ELIZABETHTON   CLEAR     45  30  57 CALM      30.08S
$$

TNZ012-013-036-069-073-074-310300-
CENTRAL EAST TENNESSEE

CITY           SKY/WX    TMP DP  RH WIND       PRES   REMARKS
KNOXVILLE      CLEAR     56  28  34 W7        30.12R
OAK RIDGE      PTCLDY    54  30  40 CALM      30.14R
GATLINBURG     CLEAR     54  25  32 VRB6      30.11R
$$

TNZ083-085-099-310300-
SOUTHEAST TENNESSEE

CITY           SKY/WX    TMP DP  RH WIND       PRES   REMARKS
CHATTANOOGA    CLEAR     55  37  50 CALM      30.14R
$$

SKY/WX REPORTED AS FAIR MEANS FEW OR NO CLOUDS BELOW
12 THOUSAND FEET.




USA.gov is the U.S. government's official web portal to all federal, state and local government web resources and services.